This is the latest recevied weather packets stored in our database for station/object KE8RXN. If no packets are shown the sender has not sent any weather packets the latest 10 day(s).
| Time | Temp. | Humidity | Pressure | Rain* | Wind** | Luminosity | Snow |
|---|---|---|---|---|---|---|---|
| 1778011272 | 12.78° C | 43% | 1012.3 hPa | 0 mm | - | 232 W/m² | - |
| 1778010968 | 12.22° C | 42% | 1012.3 hPa | 0 mm | - | 443 W/m² | - |
| 1778010666 | 12.22° C | 42% | 1012.1 hPa | 0 mm | - | 282 W/m² | - |
| 1778010362 | 12.78° C | 41% | 1011.9 hPa | 0 mm | - | 277 W/m² | - |
| 1778010052 | 12.22° C | 43% | 1012.1 hPa | 0 mm | - | 584 W/m² | - |
| 1778009750 | 12.22° C | 43% | 1012.1 hPa | 0 mm | - | 377 W/m² | - |
| 1778009447 | 11.67° C | 42% | 1012.1 hPa | 0 mm | - | 288 W/m² | - |
| 1778009145 | 12.22° C | 41% | 1012.3 hPa | 0 mm | - | 315 W/m² | - |
| 1778008843 | 12.78° C | 41% | 1012.5 hPa | 0 mm | - | 386 W/m² | - |
| 1778008541 | 12.78° C | 41% | 1011.9 hPa | 0 mm | - | 378 W/m² | - |
| 1778008238 | 12.78° C | 41% | 1012 hPa | 0 mm | - | 709 W/m² | - |
| 1778007932 | 12.22° C | 42% | 1012 hPa | 0 mm | - | 661 W/m² | - |
| 1778007629 | 12.22° C | 41% | 1011.8 hPa | 0 mm | - | 311 W/m² | - |
| 1778007326 | 12.78° C | 43% | 1011.8 hPa | 0 mm | - | 563 W/m² | - |
| 1778007022 | 12.78° C | 39% | 1011.8 hPa | 0 mm | - | 483 W/m² | - |
| 1778006719 | 12.22° C | 41% | 1011.6 hPa | 0 mm | - | 534 W/m² | - |
| 1778006416 | 11.67° C | 41% | 1011.8 hPa | 0 mm | - | 347 W/m² | - |
| 1778006113 | 11.67° C | 41% | 1011.9 hPa | 0 mm | - | 398 W/m² | - |
| 1778005810 | 11.67° C | 41% | 1011.6 hPa | 0 mm | - | 361 W/m² | - |
| 1778005506 | 11.67° C | 41% | 1012 hPa | 0 mm | - | 364 W/m² | - |
| 1778005203 | 12.22° C | 42% | 1011.6 hPa | 0 mm | - | 355 W/m² | - |
| 1778004900 | 12.22° C | 40% | 1012 hPa | 0 mm | - | 448 W/m² | - |
| 1778004597 | 12.22° C | 41% | 1011.9 hPa | 0 mm | - | 471 W/m² | - |
| 1778004293 | 12.78° C | 41% | 1011.7 hPa | 0 mm | - | 508 W/m² | - |
| 1778003990 | 12.22° C | 41% | 1011.7 hPa | 0 mm | - | 526 W/m² | - |
* Rain latest hour (hover to see other rain measurements)
** Current wind speed in m/s (hover to see current wind gust speed)